STARLINK-2610, 48376

Orbit data source: Space-Track

STARLINK-2610, 48376 is a payload satellite owned by SpaceX/Seattle (US) in LEO that was launched on Tue, 04 May 2021 UTC via an FALCON 9 launch vehicle from the Air Force Eastern Test Range (AFETR). Payload-class satellites include a variety of spacecraft equipped with specific instruments for various scientific and technological missions. These include communications satellites like Starlink; space stations such as the ISS; scientific satellites like the Hubble; Earth observation satellites from companies like Planet Labs, Umbra, and HawkEye 360; GPS; miniature CubeSats for education and research; and military/defense satellites.

Loading next visibility...
Identifier
48376, 2021-038Z
Orbit
LEO
Country
Flag of USUS
Related business
Manufacturer
SpaceX/Seattle
Mission
Partially operational Commercial Communications
Bus & Motor
STARLINK, Unknown motor
Mass
260 kg wet, ~248 kg dry
Launch date (UTC)
2021-05-04 (5 years ago)
Launch vehicle
FALCON 9
Launch site
Air Force Eastern Test Range (AFETR)
Object type
Payload
Rocket body
Debris
Shape & HBR
Box + 1 Pan, 10.1 m
Radar Cross Section
13.562 m², Large (>1 m²)

Expand to show TLE details & history
Last TLE update: 2 days ago

TLE from 2 days ago
0 STARLINK-2610
1 48376U 21038Z   26171.44178007  .00067303  00000-0  58500-3 0  9990
2 48376  53.1566 223.5280 0002711  23.5000 336.6141 15.68465565283052
Epoch: 2026-06-20T10:36Z
TLE epoch observation values (Epoch: 2026-06-20T10:36:09.798Z)
Latitude
0.00002°
Longitude
155.83084°
Altitude
362.527 km
Speed
7.694 km/s
True Right ascension
14h 54m 06s
True Declination
0° 00' 00"
Sunlit
Object was in full shadow at epoch
Visualization orbit readout
Latitude
Unknown
Longitude
Unknown
Altitude
Unknown
Speed
Unknown
Apparent Right ascension
Unknown
Apparent Declination
Unknown
Sunlit
N/A
Visualization observer readout
Local Sidereal Time
21:26:11
Azimuth
Unknown
Elevation
Unknown
Doppler factor
Unknown
Orbital elements
Apogee altitude
365.379 km
Perigee altitude
361.724 km
Semi-major axis
6,741.688 km
Eccentricity
0.00027
Inclination
53.1566°
RAAN
223.528°
Arg. of periapsis
23.5°
True anomaly
336.60177°
Mean anomaly
336.6141°
Eccentric anomaly
336.60793°
Mean motion
3.92094 °/min
Orbital period
91.81 mins
BSTAR
0.000585
Loading maneuver chart data...
Computing Atmospheric mass density...

Documentation

Showing up to 5 results
|